Weather History for New Castle, PA

Change the Weather History Date:

Friday, May 3, 2013

  Actual Average Record
Temperature  
Mean Temperature 62 °F -  
Max Temperature 73 °F 66 °F 88 °F (2012)
Min Temperature 52 °F 40 °F 25 °F (1986)
Degree Days  
Heating Degree Days 2    
Growing Degree Days 12 (Base 50)    
Moisture  
Dew Point 38 °F    
Average Humidity 40    
Maximum Humidity 54    
Minimum Humidity 25    
Precipitation  
Precipitation 0.02 in - - ()
Sea Level Pressure  
Sea Level Pressure 30.25 in    
Wind  
Wind Speed 8 mph (SE)    
Max Wind Speed 17 mph    
Max Gust Speed 23 mph    
Visibility 10 miles    
Events      
Averages and records for this station are not official NWS values.
T = Trace of Precipitation, MM = Missing Value Source: NWS Daily Summary

Daily Weather History Graph

Daily Weather History Graph

Search for Another Location

Airport:

Trip Planner

Search our weather history database for the weather conditions in past years. The results will help you decide how hot, cold, wet, or windy it might be!

Date:

Astronomy

May. 03, 2013 Rise Set
Actual Time 6:16 AM EDT 8:20 PM EDT
Civil Twilight 5:46 AM EDT 8:51 PM EDT
Nautical Twilight 5:09 AM EDT 9:28 PM EDT
Astronomical Twilight 4:29 AM EDT 10:08 PM EDT
Moon 2:43 AM EDT (5/3) 2:10 PM EDT (5/3)
Length of Visible Light 15h 04m
Length of Day
14h 04m
Last Quarter, 37% of the Moon is Illuminated
May 3
Last Quarter
May 9
New
May 18
First Quarter
May 25
Full
May 31
Last Quarter

Hourly Weather History & Observations

Time (EDT) Temp. Dew Point Humidity Pressure Visibility Wind Dir Wind Speed Gust Speed Precip Events Conditions
12:56 AM 61.0 °F 34.9 °F 38% 30.28 in 10.0 mi SE 8.1 mph - N/A   Clear
1:56 AM 57.2 °F 37.4 °F 48% 30.24 in 10.0 mi ESE 6.9 mph - N/A   Clear
2:56 AM 56.8 °F 36.9 °F 47% 30.27 in 10.0 mi ESE 5.8 mph - N/A   Clear
3:56 AM 54.9 °F 37.9 °F 53% 30.27 in 10.0 mi ESE 4.6 mph - N/A   Clear
4:56 AM 53.6 °F 37.4 °F 54% 30.23 in 10.0 mi ESE 6.9 mph - N/A   Clear
5:56 AM 52.9 °F 36.0 °F 53% 30.27 in 10.0 mi ESE 4.6 mph - N/A   Clear
6:56 AM 52.0 °F 36.0 °F 54% 30.30 in 10.0 mi SE 3.5 mph - N/A   Clear
7:40 AM 55.4 °F 35.6 °F 47% 30.27 in 1.5 mi SE 4.6 mph - 0.02 in   Haze
7:48 AM 55.4 °F 33.8 °F 44% 30.27 in 10.0 mi ESE 6.9 mph - 0.02 in   Partly Cloudy
7:56 AM 56.8 °F 34.9 °F 44% 30.30 in 10.0 mi SE 6.9 mph - 0.02 in   Partly Cloudy
8:56 AM 61.0 °F 32.9 °F 35% 30.31 in 10.0 mi SE 8.1 mph - N/A   Clear
9:56 AM 63.9 °F 34.9 °F 34% 30.30 in 10.0 mi ESE 10.4 mph - N/A   Clear
10:56 AM 66.2 °F 35.6 °F 32% 30.26 in 10.0 mi SE 9.2 mph 16.1 mph N/A   Clear
11:56 AM 68.0 °F 38.8 °F 34% 30.29 in 10.0 mi SE 10.4 mph 17.3 mph N/A   Scattered Clouds
12:56 PM 70.9 °F 37.9 °F 30% 30.27 in 10.0 mi ESE 13.8 mph 20.7 mph N/A   Scattered Clouds
2:56 PM 73.9 °F 36.0 °F 25% 30.24 in 10.0 mi SE 15.0 mph 19.6 mph N/A   Clear
3:56 PM 73.9 °F 36.9 °F 26% 30.22 in 10.0 mi SE 17.3 mph 23.0 mph N/A   Clear
4:56 PM 73.9 °F 41.0 °F 30% 30.21 in 10.0 mi SE 16.1 mph 21.9 mph N/A   Clear
5:56 PM 73.9 °F 41.0 °F 30% 30.21 in 10.0 mi ESE 12.7 mph 17.3 mph N/A   Partly Cloudy
6:56 PM 72.0 °F 39.9 °F 31% 30.21 in 10.0 mi SE 10.4 mph 18.4 mph N/A   Clear
7:56 PM 70.0 °F 39.9 °F 33% 30.21 in 10.0 mi SE 11.5 mph 17.3 mph N/A   Clear
8:56 PM 66.9 °F 41.9 °F 40% 30.23 in 10.0 mi ESE 10.4 mph - N/A   Clear
9:56 PM 63.9 °F 41.9 °F 45% 30.25 in 10.0 mi ESE 10.4 mph 18.4 mph N/A   Clear
10:56 PM 62.6 °F 41.0 °F 45% 30.21 in 10.0 mi Variable 6.9 mph - N/A   Clear
11:56 PM 61.0 °F 39.9 °F 46% 30.25 in 10.0 mi ESE 9.2 mph - N/A   Clear